Wind_Speed
44 47 49 51 53 55 56 57 59 60 61 62 63 64 65 66 66 66 66 66 66 65 65 65 65 65 65 65 65 65 66 66 67 68 69 70 71 73 74 75 76 77 78 80 81 82 83 84 84 85 86 87 88 88 89 90 91 91 91 91 91 91 90 90 90 90 91 92 93 94 95 94 93 92 91 90 88 86 86 85 84 83 82 81 78 75 73 70
37 41 45 48 51 53 55 57 58 59 60 61 62 63 64 65 65 66 66 66 66 66 66 66 66 66 66 66 66 66 66 66 67 67 68 69 70 70 72 73 74 75 76 77 78 80 81 82 83 84 84 85 86 87 88 89 89 90 90 90 90 90 89 89 89 89 89 89 91 92 93 93 93 92 91 89 88 86 85 85 85 85 85 83 81 78 74 72
28 32 37 42 46 50 53 55 57 58 59 60 61 62 62 63 64 65 65 66 66 66 66 66 66 66 67 67 67 68 68 68 69 69 69 70 70 71 72 73 73 74 75 76 77 78 79 80 81 82 83 84 85 86 87 88 88 89 89 89 89 89 88 88 88 88 88 88 90 90 91 92 92 92 90 89 87 85 84 84 84 84 85 84 82 80 77 75
22 25 29 33 38 42 47 51 54 56 58 59 60 60 61 62 62 63 63 64 64 65 65 65 66 66 67 67 68 68 69 69 70 71 71 72 72 73 73 74 75 76 76 77 78 78 79 80 81 82 82 83 84 85 85 86 87 87 88 87 88 88 87 87 87 87 88 88 89 89 90 91 91 91 90 88 87 85 84 83 83 83 84 84 83 81 80 78
15 18 22 25 29 32 37 42 46 50 53 55 57 58 59 60 60 61 61 62 62 63 63 64 65 66 66 67 68 68 69 70 70 71 72 72 73 74 74 75 76 76 77 78 79 79 80 80 81 82 83 83 84 85 85 86 86 86 86 86 86 86 86 86 86 86 87 88 88 89 89 90 91 91 89 88 86 86 85 83 83 83 83 82 82 82 81 80
8 9 11 15 18 22 26 30 34 39 43 47 50 53 55 57 58 58 59 59 60 60 61 62 63 64 65 66 67 68 68 69 70 70 71 71 72 73 73 74 75 76 77 77 78 79 80 80 81 82 83 84 84 85 85 86 86 86 86 86 85 85 85 85 85 85 86 87 87 88 89 89 90 90 89 88 87 86 86 85 84 83 82 82 82 82 82 82
12 9 7 6 6 8 13 17 22 26 30 34 38 42 45 49 52 54 55 57 58 59 59 60 61 62 63 64 65 66 66 68 68 69 70 71 72 72 73 74 74 75 76 76 77 78 79 80 80 81 82 83 83 84 85 85 86 86 86 86 85 85 85 85 85 85 86 86 86 87 88 89 89 89 89 88 88 87 87 86 85 83 82 82 82 83 83 83
18 16 14 12 10 7 3 3 9 14 18 22 25 29 33 37 41 45 48 51 53 55 56 57 59 60 61 62 63 64 65 66 67 68 69 70 71 72 73 73 74 75 76 77 77 78 79 79 80 81 81 82 82 83 83 84 84 85 85 85 85 85 85 86 86 86 86 86 86 86 87 88 89 88 89 89 88 88 87 87 86 85 83 82 82 83 84 84
24 23 21 19 17 15 13 9 5 1 5 10 13 17 20 24 28 33 37 40 43 46 48 50 52 55 56 58 59 61 62 63 65 66 67 68 70 71 72 73 74 75 76 77 78 79 80 80 80 80 81 81 82 82 83 83 84 84 84 85 85 85 85 86 86 87 87 87 87 87 88 89 89 89 88 89 89 88 87 87 87 86 85 84 83 83 84 84
29 28 27 25 23 21 19 16 13 9 6 2 2 6 9 12 16 20 23 27 30 33 36 39 41 44 46 49 51 53 55 56 58 60 61 63 65 66 68 69 71 72 74 75 76 78 78 79 79 79 80 80 81 82 82 83 83 83 84 84 84 85 85 85 86 86 87 87 88 89 89 90 90 90 89 89 88 88 88 87 87 86 86 85 84 84 84 84
33 32 31 29 28 26 23 21 18 15 11 8 5 1 2 5 8 10 14 16 19 22 25 28 31 33 35 38 40 42 45 46 48 50 51 53 55 57 59 61 63 64 66 67 69 70 71 71 72 72 74 75 76 78 79 80 81 82 83 84 84 84 84 85 85 86 86 86 88 89 90 91 92 92 91 89 88 88 87 87 87 87 87 86 85 85 85 85
36 35 34 33 31 29 27 25 22 19 16 12 9 6 3 1 3 5 8 10 13 15 18 20 22 25 27 29 31 34 35 37 39 40 42 44 45 47 49 51 52 54 55 57 59 60 61 61 61 62 64 65 67 70 72 73 75 77 79 81 82 83 83 84 85 85 85 85 86 88 89 91 93 93 93 91 89 89 88 87 87 87 87 87 86 86 86 86
39 38 36 35 34 32 31 29 27 24 21 17 15 12 9 6 4 3 2 4 5 8 10 12 15 17 19 21 23 25 26 28 30 31 33 34 36 38 40 41 43 44 46 47 49 50 51 52 52 52 54 56 58 60 62 64 66 69 71 74 76 78 79 81 83 84 84 85 85 86 87 89 92 94 94 93 91 90 89 88 88 87 87 87 87 87 86 86
40 40 39 37 36 35 33 32 30 28 25 23 20 18 15 13 12 10 8 6 4 3 3 5 7 9 11 13 14 16 18 19 20 22 24 25 27 29 31 33 34 35 37 38 40 41 42 43 43 44 45 47 50 52 54 57 58 60 63 66 69 71 73 75 77 79 82 83 84 85 86 87 89 92 94 94 93 92 91 90 89 88 87 87 88 88 87 87
42 41 41 40 38 37 36 35 33 31 29 27 25 22 19 17 16 14 14 12 9 7 6 4 4 4 4 6 7 9 11 12 14 16 18 20 21 23 25 27 28 29 30 31 33 34 35 36 37 38 38 39 42 45 48 50 51 53 55 58 61 63 66 68 71 73 76 79 80 82 85 86 87 89 91 93 93 93 92 91 90 89 88 88 88 88 88 88
43 42 41 40 39 38 37 36 35 33 32 30 27 25 23 21 19 18 17 15 13 12 11 10 7 4 3 6 8 10 12 13 14 15 17 19 20 22 24 26 27 28 29 29 30 30 31 32 32 33 34 35 38 40 42 44 45 47 48 50 53 55 58 61 64 66 69 73 75 78 80 83 86 88 89 91 92 92 92 92 92 91 90 89 88 88 88 89
42 41 40 40 39 38 37 35 34 33 31 29 28 27 26 24 22 20 18 17 16 16 15 13 11 8 6 8 10 11 13 14 15 15 16 18 19 21 22 25 27 28 29 29 29 30 30 30 30 31 32 33 35 36 38 39 41 42 43 45 46 48 51 54 58 60 63 66 70 73 75 78 82 85 88 90 91 92 92 92 92 92 91 90 89 88 88 89
42 41 40 38 38 36 35 34 33 31 29 28 27 26 25 24 21 19 17 16 16 17 16 13 14 14 9 6 7 9 10 11 11 12 12 13 15 16 18 21 22 23 25 25 27 28 28 28 29 30 31 31 32 33 34 34 35 37 38 40 42 44 45 48 51 54 58 61 64 67 71 73 76 80 84 87 90 91 91 91 91 93 93 92 91 90 89 89
46 43 41 39 38 36 35 33 31 29 26 25 25 24 25 23 19 17 16 15 17 18 16 14 15 15 10 8 9 8 7 7 7 7 8 9 11 11 12 15 17 20 20 19 22 24 24 25 27 29 30 31 31 32 32 32 31 31 32 33 35 38 41 43 45 48 52 55 58 61 65 68 71 74 78 82 86 89 91 91 91 92 93 93 93 92 91 91
54 50 47 44 42 39 37 35 33 30 28 27 27 27 27 25 21 18 14 15 18 19 18 17 15 12 8 8 8 7 7 7 6 7 7 8 10 10 9 11 13 16 15 16 18 18 19 23 27 28 28 29 30 31 32 32 31 30 29 29 29 31 34 37 40 43 46 49 53 56 59 62 65 68 72 76 80 85 89 91 91 91 92 93 94 94 93 92
59 58 55 52 50 47 44 41 39 38 37 37 37 35 33 29 26 22 19 21 24 22 22 21 17 12 9 7 7 7 8 7 7 8 8 8 9 9 9 10 12 14 15 15 15 16 17 23 26 25 25 26 26 27 28 30 30 29 26 25 26 27 28 30 33 36 40 44 47 50 53 56 58 61 65 69 74 79 84 88 90 91 91 92 93 95 95 94
60 60 59 58 56 55 53 51 48 46 45 45 43 41 38 35 33 31 30 32 32 29 28 26 23 19 15 12 12 11 12 11 9 9 10 11 12 12 12 13 14 13 13 16 18 19 21 23 22 23 24 23 22 22 23 24 26 27 24 22 21 23 25 25 27 29 33 37 41 43 47 51 53 55 58 62 67 73 78 83 87 90 91 91 92 93 95 96
60 59 59 59 58 58 57 56 55 53 51 49 47 45 43 41 40 39 38 38 38 36 35 34 31 29 26 24 21 18 18 17 15 14 14 14 16 17 17 18 18 15 18 23 24 24 24 21 21 23 22 21 21 21 22 23 26 27 26 23 20 18 19 21 22 23 26 29 34 38 41 44 48 51 53 56 60 67 72 76 82 86 90 91 91 92 94 96
62 61 60 59 59 58 58 58 57 56 55 54 52 51 49 47 46 45 43 42 43 41 40 39 39 38 36 34 32 30 30 29 27 25 23 22 22 22 23 24 24 23 25 26 25 26 26 23 23 22 22 23 24 25 27 29 30 28 27 27 25 21 18 18 18 19 20 23 26 30 34 38 42 46 49 51 55 60 64 69 75 81 86 90 91 91 92 94
65 64 62 62 60 59 59 58 58 58 57 56 55 54 53 52 51 50 48 48 48 46 44 43 43 42 41 40 41 41 41 40 39 38 36 34 32 31 30 29 29 29 29 28 27 27 28 27 27 26 27 28 29 31 33 34 33 32 30 28 27 26 23 21 19 18 17 18 20 22 26 31 35 39 43 47 50 54 57 63 70 75 81 86 89 90 91 92
67 66 65 65 63 63 62 60 58 58 58 57 56 56 56 55 54 53 53 54 52 51 50 49 48 46 45 45 46 46 46 45 45 44 44 42 41 40 39 37 35 34 34 34 34 34 34 32 31 32 33 34 36 38 37 36 36 36 35 32 30 28 27 26 24 21 17 16 16 17 20 24 29 33 37 41 45 48 52 57 63 68 74 79 84 88 90 91
68 67 67 66 66 65 64 63 61 60 58 57 57 57 56 56 55 55 56 56 54 53 54 53 52 51 51 50 50 50 49 48 47 46 46 45 45 45 44 43 42 41 41 40 40 40 39 38 38 38 39 41 43 43 40 38 38 38 38 36 35 32 31 29 27 24 20 16 14 13 14 18 23 27 31 35 39 43 47 52 56 60 66 71 77 82 87 89
67 67 67 67 67 66 66 66 65 63 60 58 58 57 56 57 56 55 56 55 54 55 56 55 55 56 55 55 54 53 52 51 51 51 50 49 47 46 46 45 45 46 46 46 46 45 44 45 45 45 46 46 45 44 42 41 40 39 39 38 37 36 35 32 27 25 23 20 16 12 10 13 17 21 26 30 34 37 41 46 50 53 58 65 70 75 80 85
67 66 66 66 66 66 66 67 66 65 64 62 60 58 57 56 56 56 56 55 54 56 56 56 57 57 57 57 57 56 56 56 56 55 54 53 52 51 49 48 48 48 49 49 49 50 50 50 50 49 49 48 46 44 44 43 43 42 40 39 38 37 37 35 32 30 27 24 20 17 12 9 12 16 20 25 29 32 36 40 45 48 52 58 63 68 73 78
67 66 65 65 65 65 65 66 66 66 66 65 63 61 59 58 57 57 56 54 55 56 56 56 57 57 57 57 56 56 57 57 56 57 56 56 56 55 53 52 51 50 49 49 49 51 52 53 53 52 51 49 49 48 47 46 45 45 44 42 40 38 38 39 38 37 35 32 28 24 18 12 8 10 14 19 23 27 31 34 39 43 47 51 56 61 67 72
67 66 65 64 64 64 64 64 65 65 65 65 65 64 63 61 59 58 56 56 57 57 56 56 56 55 55 55 55 55 56 56 56 56 56 56 57 58 58 57 55 53 51 50 50 50 51 52 54 55 54 52 51 50 50 49 48 47 47 47 45 44 43 42 43 42 40 38 35 31 25 20 14 9 8 13 18 22 26 29 32 37 42 46 50 54 59 65
64 65 66 64 63 63 63 63 63 63 64 64 64 64 65 64 63 61 59 59 59 58 58 58 57 56 55 55 55 55 56 56 57 57 57 59 60 61 61 60 59 57 56 54 53 53 53 52 52 53 55 55 54 52 51 50 50 50 50 50 50 49 48 47 45 44 43 41 38 36 32 27 21 15 10 7 11 16 21 24 27 31 35 40 44 48 52 57
62 63 64 64 64 63 63 62 62 61 62 63 63 63 63 63 63 63 62 62 61 60 60 59 59 59 58 57 56 56 56 57 57 58 59 60 61 61 62 61 61 60 59 58 58 58 58 56 54 53 54 56 58 58 56 54 52 51 51 51 51 50 50 50 48 46 44 43 41 39 36 32 27 22 16 10 7 9 14 19 23 26 30 34 38 42 46 51
60 61 61 63 63 63 63 63 62 61 61 61 62 62 62 62 62 62 63 62 62 62 61 61 61 60 60 59 59 59 58 58 58 58 58 59 60 60 61 62 62 61 60 59 59 59 60 60 58 56 55 55 57 58 60 59 56 54 52 51 52 51 50 50 50 49 46 45 43 41 39 36 32 28 24 18 12 8 8 11 16 21 25 29 32 36 40 45
58 59 60 60 61 62 62 62 62 62 61 60 61 62 62 61 61 62 61 61 61 61 61 60 60 60 60 60 60 60 60 60 59 59 58 59 59 60 61 61 62 62 60 58 57 58 59 59 59 59 58 56 56 56 58 59 59 58 56 53 52 51 52 52 51 51 49 47 45 43 41 39 36 32 29 26 21 16 11 9 9 13 18 23 28 32 35 38
56 57 58 58 59 59 60 61 61 61 61 61 61 61 61 61 62 61 61 60 60 59 59 59 59 59 59 60 60 60 60 60 60 60 59 59 60 60 61 61 61 62 62 59 57 57 58 57 57 58 58 57 57 57 57 58 58 59 59 57 54 52 51 51 50 50 50 49 47 45 43 41 39 37 33 30 26 23 19 15 11 9 11 15 20 26 30 34
53 55 56 57 57 58 58 59 60 60 60 60 60 61 61 61 62 62 62 61 60 59 59 58 58 58 59 59 59 60 60 60 60 60 60 60 60 60 60 61 61 61 61 61 58 56 57 57 55 54 55 56 56 57 57 56 56 56 56 56 56 54 52 50 48 48 48 48 47 46 45 43 42 40 37 34 31 27 24 21 17 14 11 10 13 17 23 28
50 52 54 55 56 56 56 57 58 59 60 60 59 60 60 60 61 62 62 61 61 60 60 59 58 57 57 58 58 58 59 59 59 59 60 60 61 61 60 61 61 61 60 60 59 58 56 56 56 54 52 53 54 55 55 55 55 54 53 52 52 52 51 49 46 46 47 46 45 46 45 44 44 42 40 38 36 32 29 25 22 19 16 14 12 12 15 21
49 49 51 53 54 55 55 55 55 56 58 59 59 59 59 59 59 61 62 62 61 60 60 60 59 58 57 57 57 57 57 58 58 58 58 59 59 60 60 60 60 61 60 60 59 59 57 56 56 55 53 52 52 53 54 53 53 53 53 52 51 50 49 49 47 45 45 44 43 43 44 43 42 42 42 40 39 37 34 30 26 23 20 17 16 14 13 15
48 48 49 51 52 53 54 54 54 54 55 57 58 59 59 58 58 59 61 62 61 61 60 60 60 59 58 58 57 57 56 57 57 57 57 57 58 58 59 59 59 60 61 60 59 59 59 57 56 57 57 55 53 52 53 53 53 53 53 52 53 53 52 51 49 46 44 43 41 38 40 42 40 39 40 40 39 38 37 35 32 28 24 20 17 16 15 14
49 49 50 51 51 52 53 54 54 53 53 54 56 57 58 58 58 58 60 62 62 61 60 60 60 60 60 59 59 58 57 56 57 57 57 57 56 57 58 58 58 58 59 60 60 60 60 59 58 58 59 58 56 54 53 53 53 53 53 53 53 55 56 54 53 50 46 44 42 35 33 39 42 39 38 37 37 37 36 36 36 34 30 26 22 19 17 16
50 50 51 52 52 52 52 53 55 55 54 54 54 56 57 58 58 58 59 61 63 63 62 62 61 60 60 60 60 60 59 57 57 56 57 57 57 57 57 58 58 57 57 58 59 60 60 60 60 60 59 59 59 57 54 53 53 53 53 54 54 55 57 56 55 54 51 47 45 40 32 34 42 44 41 38 36 35 34 33 34 35 34 32 28 23 20 18
49 50 50 52 53 53 53 53 54 56 56 55 55 56 57 58 58 59 59 61 63 64 63 63 62 61 60 59 59 60 60 59 58 57 57 58 59 58 57 58 58 57 57 57 58 59 60 60 60 61 61 60 61 60 57 55 54 54 53 53 54 55 55 55 56 57 56 52 49 47 41 36 40 45 45 43 39 37 35 33 31 31 33 34 33 30 26 22
47 49 50 51 52 53 54 53 54 56 57 57 56 56 58 59 59 59 59 60 62 64 64 63 63 63 62 60 60 59 59 59 59 58 57 57 60 61 60 59 58 57 57 57 57 58 59 59 58 58 59 59 60 61 61 58 56 55 54 52 52 53 52 53 54 56 59 57 54 53 50 44 40 41 44 46 45 42 40 38 34 31 29 31 33 33 31 28
46 47 49 50 51 52 53 54 54 55 58 59 58 58 59 60 60 60 60 60 61 63 64 64 64 64 63 62 61 60 59 58 58 59 58 58 61 63 63 61 60 58 57 57 57 57 58 58 58 57 56 57 58 59 60 59 56 54 54 53 51 51 50 50 51 54 56 58 58 58 56 51 45 42 41 42 45 45 44 42 40 37 32 29 30 33 33 32
45 46 47 48 50 51 52 53 54 55 57 59 59 59 60 60 61 61 60 60 61 62 63 64 64 65 64 62 62 63 61 60 58 58 58 59 61 63 64 63 62 60 59 57 57 57 57 57 58 57 57 57 59 60 60 60 58 54 53 53 51 51 50 48 49 51 53 55 58 61 61 57 52 49 45 42 41 43 44 44 43 41 39 34 31 31 33 34
46 46 46 48 49 50 51 52 53 54 56 58 59 59 59 60 61 61 61 60 61 61 62 64 65 66 65 63 62 64 65 63 61 59 58 58 60 63 64 64 63 63 61 58 56 56 56 56 56 57 58 57 57 60 60 60 60 56 54 54 52 51 52 49 48 50 51 52 54 58 61 60 58 57 54 48 44 42 41 42 43 42 41 39 36 34 34 36
45 46 46 47 48 50 51 51 52 53 54 56 57 58 59 59 60 61 61 61 61 62 62 63 65 66 66 64 62 64 66 66 64 62 60 58 59 61 64 64 64 64 63 59 57 57 56 55 55 55 58 57 55 58 60 60 60 58 55 54 54 52 53 53 50 49 50 51 52 54 58 60 60 60 59 54 51 48 44 42 42 42 41 40 39 37 36 37
44 45 46 46 48 50 51 52 52 52 53 55 56 57 58 58 59 61 61 61 61 62 63 63 65 66 67 65 63 63 66 67 67 65 62 60 59 61 63 65 65 65 64 60 58 59 59 57 54 53 56 58 55 56 60 61 60 60 58 57 56 54 54 55 54 51 50 51 52 52 55 59 60 61 62 59 54 52 50 46 44 43 42 41 39 38 38 38
43 44 45 46 47 48 50 52 52 52 53 54 55 56 56 57 59 59 60 61 61 62 63 63 64 65 67 67 64 62 65 68 69 68 66 62 61 62 63 65 66 66 65 62 59 60 61 60 56 52 54 57 55 55 59 62 61 60 60 59 58 56 56 57 56 54 51 51 52 52 53 56 59 61 63 63 59 56 54 51 48 46 44 42 39 38 38 38
41 43 44 45 46 47 48 50 51 52 53 54 55 56 56 57 58 59 60 60 60 61 62 64 64 64 65 68 66 64 65 68 70 70 69 66 64 64 64 66 68 69 68 65 61 60 61 61 59 55 54 55 54 54 58 63 64 61 59 59 59 57 57 58 57 56 54 53 53 52 52 53 56 59 62 63 63 61 58 56 54 51 46 42 41 39 38 39
42 43 43 44 45 46 47 48 49 51 53 54 55 56 56 57 57 59 61 61 60 61 62 63 64 63 63 67 68 67 66 68 70 72 72 70 68 68 67 67 69 71 71 69 65 63 63 62 60 58 57 56 54 53 56 62 65 63 59 59 60 58 58 58 58 57 56 56 55 53 52 51 52 55 58 61 63 64 63 61 59 56 50 44 42 41 40 39
Wind_Direction
254 253 253 252 252 251 250 250 250 250 249 249 250 250 250 250 250 250 251 251 252 252 252 253 254 254 254 255 255 255 256 256 256 257 257 257 257 258 258 258 258 258 258 258 258 258 258 259 259 258 258 258 258 258 258 258 258 258 258 258 257 257 257 257 257 257 258 258 258 259 259 259 258 257 256 255 254 253 252 251 251 250 249 249 248 247 246 246
255 253 252 252 251 251 250 250 250 249 249 249 249 250 250 250 251 251 251 251 252 252 253 253 254 255 256 256 256 257 257 257 257 257 258 258 258 258 259 259 259 259 259 259 259 259 259 259 259 259 259 258 258 258 258 258 258 258 258 258 257 257 257 256 256 256 256 257 257 257 258 258 257 257 256 255 254 252 251 251 250 249 249 248 247 246 245 245
257 255 252 251 250 249 249 249 249 249 249 249 249 249 250 250 251 251 252 252 253 253 254 254 255 255 256 257 257 258 258 258 258 258 259 259 259 259 259 259 259 259 259 259 259 259 259 259 259 259 259 259 259 259 258 258 258 258 258 258 258 257 257 256 256 256 255 255 255 256 256 257 256 256 256 255 254 252 250 249 249 248 247 247 246 246 244 244
265 260 256 253 250 249 248 247 247 247 247 248 248 249 249 250 250 251 252 253 254 255 255 256 256 257 257 258 258 259 259 260 260 260 260 260 260 260 260 260 261 261 261 261 261 261 261 261 261 261 260 260 260 260 259 259 259 259 258 258 258 257 257 256 256 255 255 254 254 254 255 255 255 255 255 254 253 252 250 248 247 246 246 246 245 244 244 243
282 272 264 258 254 251 249 248 247 247 246 247 247 248 248 249 250 251 252 253 254 255 256 257 257 258 259 259 259 260 260 261 261 262 262 263 263 263 263 263 263 263 263 263 263 263 263 263 263 263 263 262 262 262 261 261 260 260 259 259 258 258 257 256 256 255 255 254 254 254 254 254 254 254 254 253 252 251 250 248 246 245 244 244 244 243 242 242
336 306 287 274 263 256 252 249 248 247 247 247 247 247 248 249 250 250 251 252 253 254 255 256 257 257 258 259 259 260 261 262 263 263 264 265 265 266 266 266 266 266 266 266 265 265 265 265 264 264 264 264 264 264 263 263 262 261 261 260 259 258 258 257 256 255 255 254 254 254 253 253 253 253 253 252 252 251 250 248 246 244 243 242 242 242 241 241
35 27 9 345 310 276 258 249 246 245 246 246 247 247 248 248 249 250 250 251 252 252 253 254 255 256 257 258 259 261 262 263 264 264 265 266 266 267 267 267 267 267 267 267 267 267 266 266 266 265 265 265 264 264 264 264 263 263 262 261 260 259 258 258 256 256 255 254 254 253 253 253 252 252 252 251 251 250 249 249 247 245 242 241 241 240 240 239
48 50 49 47 42 35 13 267 243 239 240 241 243 244 245 246 247 248 249 250 251 252 253 254 255 256 257 258 259 260 261 262 263 264 264 265 266 267 268 268 269 269 269 269 268 268 268 267 267 267 266 266 265 265 265 264 264 263 263 262 261 260 259 258 257 256 255 254 254 253 253 253 252 251 251 251 250 249 249 248 247 246 243 240 239 239 239 239
51 52 54 56 56 57 58 58 63 179 232 238 241 243 245 246 246 247 248 249 250 251 252 254 255 256 257 258 259 260 261 261 262 263 264 265 266 267 268 268 269 269 269 269 269 269 268 268 268 268 267 267 267 266 266 265 264 264 263 262 262 260 259 258 257 256 255 254 254 253 253 253 252 251 250 250 249 249 248 247 247 246 244 241 239 237 237 238
54 54 55 55 57 58 59 61 64 65 70 79 240 247 249 249 250 250 250 250 251 252 253 254 255 257 258 259 260 261 262 262 263 264 264 265 266 266 267 267 267 267 268 268 268 268 268 268 268 268 268 267 267 267 266 266 265 264 264 263 262 261 259 258 256 255 254 253 253 253 252 252 252 251 250 250 249 248 247 246 246 246 245 243 240 238 236 236
56 57 58 58 59 59 60 60 61 62 64 65 67 77 242 245 248 250 251 252 252 252 253 253 254 256 257 258 260 261 262 263 263 264 265 265 266 266 267 267 268 268 268 269 269 269 269 269 269 269 269 268 268 267 266 265 265 264 263 262 261 260 259 258 257 255 254 252 251 251 251 251 252 251 251 250 249 248 247 246 245 245 244 244 242 240 237 235
58 59 59 60 61 62 62 63 63 62 62 62 62 61 56 1 260 258 257 257 257 258 257 257 257 258 258 260 261 262 264 265 266 267 267 268 269 269 270 270 271 271 272 272 273 273 273 273 272 272 271 270 269 268 267 266 265 264 263 262 261 260 259 258 257 255 254 252 251 250 249 249 250 250 250 249 249 248 248 246 245 244 244 243 242 241 239 236
57 59 60 61 62 63 63 64 64 64 65 65 64 63 61 57 49 26 332 299 285 277 272 269 267 264 264 264 266 267 269 269 270 271 272 273 273 274 274 274 275 275 276 276 277 277 277 277 276 274 273 272 271 269 268 266 265 264 264 263 262 260 259 258 257 255 254 252 251 250 248 248 248 248 249 248 248 247 247 246 245 244 243 242 241 241 240 239
54 56 58 59 61 62 62 63 63 64 65 66 65 65 64 64 64 61 57 50 34 5 321 292 279 274 272 271 273 274 274 276 276 276 277 278 278 278 278 279 279 280 280 281 281 281 282 281 279 277 274 273 272 271 269 268 266 265 263 263 262 261 260 259 258 256 255 253 251 250 248 247 246 247 247 247 246 246 245 245 245 244 243 242 241 240 240 239
51 53 54 56 57 59 60 60 60 61 61 62 62 63 62 64 64 62 59 54 50 47 34 17 345 307 281 286 294 294 292 290 288 287 288 288 288 288 287 287 287 287 287 288 288 288 287 286 285 282 279 275 273 272 271 270 269 267 265 264 263 262 261 260 259 257 256 255 252 250 248 247 246 245 245 246 245 245 244 244 244 243 242 242 241 240 240 239
51 51 53 54 56 57 58 58 58 58 59 59 59 60 59 58 57 54 51 46 46 46 41 34 13 341 338 349 338 327 322 314 312 310 306 306 304 302 302 301 300 299 298 297 297 296 296 295 292 290 288 285 280 277 276 274 272 270 268 266 264 263 262 260 259 257 255 254 253 251 249 247 245 245 244 244 245 244 243 243 243 242 242 241 241 240 240 239
52 53 54 55 56 57 59 60 60 61 61 60 59 59 58 55 53 51 46 42 44 46 48 39 27 35 32 359 342 339 338 332 330 325 320 318 313 312 311 308 309 310 310 309 308 306 303 302 300 298 296 292 288 285 283 280 278 276 273 270 267 264 262 260 259 257 255 253 252 251 249 247 245 244 243 243 243 243 243 242 241 241 241 240 240 239 239 239
55 55 56 57 59 60 61 63 64 65 65 63 61 61 62 62 59 55 53 48 48 53 55 44 43 57 53 12 3 7 1 350 341 333 329 323 317 319 316 314 316 313 311 309 309 309 310 309 307 305 302 299 295 292 289 285 282 279 277 274 271 268 264 261 259 257 255 254 252 250 249 247 245 244 242 242 241 242 242 241 240 240 240 240 239 239 238 238
57 58 59 60 61 62 64 65 67 68 68 68 68 68 70 71 67 65 65 56 52 58 60 55 59 69 69 55 49 40 31 19 3 354 350 344 343 344 337 333 322 312 315 322 328 330 325 322 320 317 315 311 308 304 300 296 293 288 284 279 275 271 268 264 261 258 255 253 252 251 249 247 245 243 242 241 240 240 240 240 239 239 238 239 239 238 238 238
54 55 57 59 62 64 65 67 69 71 71 72 73 72 72 72 70 67 62 53 57 64 66 66 73 81 79 71 64 54 50 43 33 26 19 17 18 14 3 347 325 327 352 4 358 342 326 335 341 333 327 321 318 315 312 310 307 303 299 293 286 278 272 267 264 260 257 254 252 251 250 248 246 244 242 240 240 239 239 239 239 238 237 237 237 237 237 237
50 51 51 52 55 57 60 62 64 66 66 67 66 66 66 66 66 63 57 58 63 65 66 67 70 73 74 70 59 49 47 44 39 36 33 35 33 28 19 3 356 12 23 13 356 341 345 2 1 351 345 338 330 325 321 318 315 311 307 302 296 289 281 274 267 262 259 256 253 251 250 249 247 245 242 240 239 239 238 238 239 238 237 236 236 236 236 236
49 49 49 49 49 51 52 53 55 57 59 60 61 61 61 60 61 58 57 60 61 59 59 59 59 61 62 60 53 46 42 37 31 30 33 37 37 38 37 32 32 31 22 15 12 16 27 28 18 14 12 2 350 337 329 327 325 323 319 311 302 296 291 284 275 267 261 258 255 253 251 249 247 245 243 240 238 237 237 237 238 238 238 237 235 235 235 235
47 47 47 47 47 48 49 49 50 51 53 55 56 56 56 55 55 53 54 56 56 55 54 53 51 51 51 52 51 49 45 40 36 35 34 35 39 41 42 42 40 35 33 35 35 36 38 32 26 28 25 17 10 1 354 351 348 343 337 332 322 309 301 295 287 277 266 260 256 254 251 249 246 244 242 240 237 236 236 236 237 237 237 237 236 234 234 234
45 45 45 45 45 45 46 46 47 48 50 51 51 52 52 52 51 50 50 51 52 51 50 50 49 48 47 46 46 45 43 41 40 39 38 37 38 39 40 41 39 40 41 40 39 39 36 31 29 29 26 26 24 22 18 13 7 359 353 348 341 332 324 315 307 294 280 267 259 254 251 248 245 243 241 239 237 235 235 234 235 236 236 237 236 235 234 234
44 44 44 44 44 43 43 44 44 45 47 48 48 49 49 49 49 47 46 48 48 46 46 47 48 48 46 45 45 44 43 42 40 39 38 36 36 35 35 36 36 38 39 36 35 35 34 32 31 28 29 31 32 32 31 27 21 14 8 2 355 350 344 337 332 322 305 287 270 259 252 248 245 242 240 239 237 236 234 232 232 234 235 236 236 236 235 234
44 43 43 42 42 42 42 42 42 43 44 45 45 46 46 46 47 45 43 45 45 43 42 44 45 45 45 46 46 45 46 45 42 41 39 37 35 34 32 31 31 33 34 34 33 31 31 31 31 30 31 32 34 35 35 34 31 26 20 15 10 6 360 354 349 343 331 312 291 272 258 249 245 243 241 238 237 237 235 233 232 232 234 235 236 236 236 234
45 44 43 42 41 41 40 40 41 41 42 43 43 44 44 44 44 43 42 44 43 40 40 41 41 41 41 42 42 42 44 44 43 42 41 39 37 35 33 30 29 29 29 29 29 29 29 29 29 30 30 31 32 32 33 35 35 34 31 26 21 17 14 9 1 354 350 340 320 296 272 256 248 245 243 241 238 237 236 235 234 232 233 234 235 236 236 236
45 45 44 43 43 42 40 40 39 40 40 41 41 42 42 42 42 42 42 42 40 39 40 39 39 38 38 38 38 37 37 37 38 38 38 39 38 38 36 33 31 30 28 28 27 26 27 27 27 28 27 28 29 30 31 32 33 35 36 34 31 27 23 19 13 8 5 360 352 335 303 271 257 250 246 244 242 239 237 236 235 233 232 233 234 236 237 237
45 45 44 44 43 43 42 41 40 39 39 40 40 40 40 40 40 40 41 40 38 38 38 38 38 37 36 36 35 33 32 32 32 32 33 33 34 35 36 34 34 32 30 29 27 26 26 25 25 26 25 24 25 28 30 30 30 31 32 34 35 35 31 26 22 19 15 13 11 5 349 310 272 257 250 248 246 243 241 239 236 234 232 232 233 234 236 237
43 43 44 44 43 43 43 42 41 40 39 39 39 39 39 38 37 38 38 36 36 37 37 36 37 36 35 35 34 32 31 31 30 30 30 29 29 30 30 31 33 33 32 30 29 28 27 25 24 24 23 23 23 23 24 26 27 27 28 28 30 34 34 32 29 25 21 19 18 15 11 358 323 278 258 251 248 247 244 242 239 237 234 233 233 233 234 236
40 41 42 42 42 42 42 42 41 41 40 39 39 38 37 37 36 36 35 34 34 34 33 34 34 34 34 34 33 32 31 31 30 29 28 27 27 26 25 26 28 30 32 31 30 29 28 26 24 22 21 22 23 22 21 21 21 23 24 24 25 27 29 31 32 30 27 24 21 19 17 14 6 343 295 263 252 249 248 245 242 240 238 235 234 234 234 235
38 39 39 40 40 41 41 41 41 40 40 39 39 38 37 36 35 34 33 32 32 31 31 31 31 31 31 30 30 29 29 28 27 27 26 25 25 24 23 22 23 24 27 28 28 28 29 28 25 23 20 19 20 21 22 21 19 19 19 19 20 22 23 24 27 29 29 28 26 23 19 16 14 8 353 310 269 256 251 249 246 243 241 239 237 236 235 235
35 36 37 37 38 38 38 39 39 38 38 38 38 37 36 36 35 34 33 32 30 30 30 29 29 28 28 27 27 26 26 25 25 24 24 24 24 23 22 21 20 21 22 24 25 26 27 28 26 25 22 20 18 18 19 21 21 19 16 15 15 17 18 19 20 22 25 27 27 26 22 19 16 12 8 357 321 278 262 255 251 248 245 242 241 239 237 237
33 34 34 35 36 36 36 37 37 36 36 35 35 35 35 34 34 33 32 31 29 28 28 28 28 27 26 26 25 24 24 24 23 23 22 22 22 21 21 20 19 19 20 22 23 24 26 27 27 26 25 23 21 18 17 17 19 19 18 15 12 11 12 14 15 16 18 21 23 23 24 23 20 16 11 6 358 334 294 272 261 255 251 247 245 243 241 239
32 32 32 33 33 34 34 34 35 35 34 33 32 32 32 32 31 31 31 30 29 27 26 26 26 26 25 25 24 23 22 22 22 22 21 21 20 19 19 19 18 18 19 20 22 23 26 28 29 28 27 25 24 21 18 17 15 16 17 18 16 13 10 8 8 9 10 13 15 17 20 21 22 20 16 9 3 356 342 318 289 269 260 254 251 248 245 242
32 32 31 31 32 32 32 32 33 33 33 32 31 30 30 30 29 29 28 28 27 26 25 24 24 23 23 23 22 22 21 21 21 21 21 20 19 18 17 17 17 16 16 18 21 22 24 27 30 30 29 27 26 24 22 19 17 15 14 15 17 17 15 10 7 5 5 5 8 10 12 14 16 18 18 15 9 1 354 344 330 307 278 263 257 254 251 247
31 31 31 31 31 31 31 31 31 31 32 31 31 30 29 28 27 27 26 26 26 25 24 23 22 22 21 21 20 20 19 19 19 19 19 19 18 18 17 17 16 15 14 15 17 20 21 23 26 31 32 30 27 26 23 21 19 17 16 14 13 14 15 14 11 7 3 1 2 3 5 6 8 10 12 12 11 7 1 354 344 332 315 289 269 259 255 252
31 30 31 30 30 30 30 30 30 30 30 30 30 29 28 27 26 25 25 25 24 24 23 22 21 20 19 18 18 18 17 17 16 16 17 17 17 17 17 17 16 15 13 12 13 16 18 19 19 23 29 31 29 27 25 22 20 19 17 15 13 11 11 11 12 9 5 2 359 358 359 1 2 2 3 4 6 6 4 0 353 344 334 320 301 279 262 255
30 29 29 30 30 29 29 29 29 29 29 30 29 29 28 27 25 25 24 24 23 23 22 22 20 19 18 17 16 16 15 15 15 14 14 14 15 15 15 16 15 15 14 12 10 11 14 17 16 14 17 23 27 28 26 24 22 20 17 15 13 12 10 8 8 8 5 2 2 358 353 355 357 358 357 357 357 358 359 359 357 352 345 334 322 308 289 272
29 28 27 28 29 28 27 27 27 28 28 29 29 29 29 28 26 25 25 24 23 22 22 21 21 19 18 16 15 14 14 13 13 12 12 12 13 13 13 13 13 13 13 12 11 9 9 12 13 10 8 11 17 22 23 22 22 21 18 15 13 14 13 10 7 7 5 0 1 1 352 347 349 352 353 353 352 351 351 352 352 352 348 342 333 322 309 294
26 26 25 25 26 26 26 25 25 25 25 25 26 27 28 28 27 25 25 24 24 23 22 21 21 20 18 17 15 14 13 11 11 10 10 10 10 11 11 11 11 11 11 11 10 9 8 8 9 8 5 3 6 12 16 18 19 20 19 17 15 14 15 13 9 8 8 3 358 0 356 345 341 343 346 348 347 346 345 345 344 345 344 342 337 330 320 308
20 22 22 22 23 24 24 23 22 22 23 22 22 22 23 24 24 24 24 23 23 23 23 22 21 19 18 17 16 14 13 11 10 9 8 7 7 8 9 9 9 10 10 9 8 8 7 6 7 7 5 2 360 2 8 12 14 16 18 18 17 16 15 15 12 8 9 9 1 357 358 350 340 336 338 341 341 340 340 340 338 337 336 336 334 331 325 317
13 14 16 17 19 20 21 21 20 19 20 21 20 18 19 20 20 20 20 20 20 20 21 21 21 19 18 17 15 14 13 12 10 9 7 5 4 5 6 6 7 7 8 7 6 6 6 5 5 6 5 2 359 358 1 5 7 9 12 14 15 16 16 15 14 9 7 8 6 358 357 359 349 337 334 335 334 334 333 333 333 331 329 328 327 326 324 319
6 7 8 10 12 14 17 18 18 17 17 18 18 17 16 16 16 17 16 16 17 16 17 18 19 18 17 16 15 14 13 12 10 9 8 5 3 3 3 3 3 4 4 5 5 4 3 3 3 5 5 3 359 357 357 360 2 2 3 7 10 12 15 16 15 12 7 5 6 2 358 2 1 349 341 337 333 330 328 327 326 325 323 321 320 319 319 317
358 360 1 3 5 8 11 13 14 14 14 16 16 15 14 14 13 14 14 13 13 14 13 14 16 17 16 15 14 13 12 11 10 9 8 6 4 4 3 2 1 1 1 2 2 2 1 360 360 2 3 1 358 355 354 356 359 358 356 358 3 5 10 14 15 14 9 5 5 4 1 2 4 359 352 345 338 332 328 325 323 321 319 316 312 311 311 311
350 352 354 355 357 360 3 6 8 9 10 12 14 13 13 13 12 12 12 12 11 11 11 11 12 14 14 13 12 12 11 10 9 9 8 6 5 5 5 4 2 1 0 0 360 359 359 358 357 358 0 359 355 352 352 352 355 358 354 351 355 359 1 7 11 12 10 7 5 4 2 4 4 360 356 353 346 337 331 326 322 319 317 314 309 306 303 303
344 345 347 349 351 352 354 357 1 3 5 7 10 10 10 11 10 10 10 10 9 9 10 9 9 10 11 11 10 9 8 8 7 7 7 6 5 5 5 5 4 3 2 1 359 357 357 357 355 354 356 358 354 350 349 349 351 357 357 350 349 352 354 357 3 7 7 6 6 4 2 3 5 2 358 355 351 344 336 329 324 319 315 313 310 305 300 299
341 341 343 345 346 346 348 350 353 356 358 0 4 6 6 7 8 8 8 8 6 6 7 8 7 7 8 9 8 7 6 5 4 4 4 4 3 3 4 4 4 4 3 2 0 358 356 356 355 352 352 355 355 349 346 346 348 353 357 352 347 348 349 351 355 360 1 1 3 3 1 1 3 2 359 357 354 348 341 334 327 320 315 312 309 305 301 297
339 339 340 342 342 343 344 344 346 348 350 352 356 360 1 2 4 5 6 6 4 3 4 5 5 5 5 6 6 5 5 4 2 1 1 1 1 1 2 2 2 2 3 3 1 360 359 358 357 353 349 352 354 349 344 343 345 349 353 352 348 346 346 346 348 352 355 356 357 0 0 360 1 2 359 357 356 351 345 339 331 324 318 314 309 304 299 296
337 337 338 339 340 341 341 341 341 342 344 345 347 351 355 357 358 360 2 4 3 0 1 2 2 3 3 3 3 2 2 1 0 359 359 358 358 358 359 -0 360 359 1 1 0 0 1 0 360 356 348 349 352 349 342 340 343 347 349 348 347 346 344 343 344 346 350 351 352 355 358 358 359 0 359 357 355 352 347 342 335 328 322 318 312 304 297 293
337 336 336 337 338 340 339 339 340 339 339 340 341 344 347 351 353 354 357 360 360 357 358 359 359 359 1 2 1 359 359 358 358 357 357 356 356 355 356 357 357 357 358 360 359 358 359 360 1 359 351 347 350 348 341 337 339 345 347 344 344 345 344 342 341 343 346 347 348 350 354 356 357 358 358 356 355 353 349 344 338 332 326 322 316 308 299 292
338 337 336 335 336 338 338 338 340 339 337 337 338 340 341 343 346 348 351 354 356 354 352 355 356 355 357 360 359 357 356 356 355 355 355 354 353 353 353 354 355 354 355 357 358 356 356 357 358 359 355 351 348 346 340 335 336 342 344 342 342 343 343 341 339 340 343 344 344 346 348 351 354 356 356 355 355 353 350 346 341 335 331 326 319 312 304 296
Height
10580 10581 10582 10583 10585 10587 10589 10591 10593 10595 10597 10599 10602 10604 10606 10609 10611 10614 10616 10618 10621 10623 10625 10627 10629 10631 10633 10635 10636 10638 10639 10640 10641 10642 10643 10643 10644 10645 10646 10646 10647 10648 10648 10649 10650 10651 10651 10652 10653 10654 10655 10655 10657 10658 10659 10660 10662 10664 10666 10669 10672 10676 10679 10681 10682 10683 10684 10683 10683 10685 10685 10689 10695 10699 10705 10710 10716 10722 10726 10729 10733 10736 10739 10744 10749 10754 10760 10766
10574 10575 10576 10577 10579 10581 10582 10584 10587 10589 10591 10594 10596 10598 10601 10603 10605 10608 10611 10613 10616 10618 10620 10622 10624 10626 10628 10630 10631 10632 10634 10635 10635 10636 10637 10637 10638 10639 10639 10639 10640 10641 10641 10641 10641 10642 10643 10643 10644 10645 10646 10646 10647 10648 10649 10651 10652 10654 10657 10659 10663 10666 10670 10672 10674 10675 10675 10674 10673 10675 10675 10678 10683 10688 10694 10699 10705 10712 10717 10720 10723 10726 10729 10735 10742 10748 10754 10759
10570 10570 10570 10571 10572 10574 10576 10578 10580 10583 10585 10588 10590 10593 10595 10598 10600 10603 10605 10608 10611 10613 10616 10618 10620 10622 10623 10625 10626 10627 10628 10628 10629 10630 10630 10631 10632 10632 10632 10632 10632 10633 10633 10633 10634 10634 10634 10635 10636 10636 10637 10637 10638 10639 10640 10641 10643 10645 10647 10650 10654 10656 10660 10663 10664 10665 10666 10665 10664 10665 10666 10668 10671 10676 10683 10690 10695 10701 10707 10711 10714 10717 10720 10726 10734 10741 10746 10751
10566 10566 10565 10566 10567 10568 10570 10572 10574 10577 10579 10582 10585 10588 10590 10593 10596 10598 10601 10604 10606 10609 10611 10613 10615 10617 10618 10619 10620 10621 10621 10622 10622 10623 10623 10624 10624 10624 10625 10625 10625 10625 10625 10626 10626 10627 10627 10627 10628 10628 10629 10629 10629 10630 10631 10632 10634 10636 10639 10642 10645 10647 10650 10653 10654 10655 10656 10656 10655 10656 10658 10658 10660 10666 10673 10680 10685 10689 10695 10701 10704 10707 10712 10718 10726 10732 10737 10742
10564 10563 10562 10562 10562 10563 10565 10567 10569 10571 10574 10577 10580 10583 10586 10589 10592 10594 10597 10600 10602 10605 10607 10609 10610 10612 10613 10613 10614 10614 10615 10615 10615 10616 10616 10617 10617 10617 10618 10618 10618 10619 10619 10619 10619 10620 10620 10620 10620 10620 10620 10621 10621 10622 10623 10624 10626 10628 10630 10633 10635 10638 10640 10643 10644 10645 10646 10646 10646 10648 10650 10650 10651 10656 10664 10669 10674 10677 10682 10689 10694 10698 10705 10711 10716 10722 10727 10732
10562 10561 10560 10560 10560 10560 10561 10563 10565 10567 10570 10573 10576 10579 10582 10585 10588 10590 10593 10596 10598 10600 10602 10604 10604 10605 10606 10606 10607 10608 10609 10609 10609 10610 10611 10611 10611 10611 10611 10611 10611 10611 10611 10611 10611 10611 10612 10612 10612 10611 10612 10612 10612 10613 10614 10615 10617 10618 10620 10623 10626 10629 10631 10633 10635 10635 10635 10637 10638 10639 10641 10641 10642 10647 10654 10658 10663 10667 10670 10676 10682 10690 10697 10702 10706 10711 10716 10722
10561 10560 10559 10559 10558 10558 10559 10560 10562 10564 10567 10569 10572 10575 10578 10580 10583 10586 10588 10590 10592 10594 10596 10598 10599 10599 10600 10601 10602 10603 10604 10604 10604 10605 10604 10604 10604 10604 10604 10604 10604 10603 10603 10603 10603 10603 10602 10602 10602 10602 10603 10603 10603 10604 10605 10606 10607 10608 10610 10613 10616 10619 10620 10623 10624 10624 10626 10628 10630 10631 10631 10631 10633 10638 10643 10646 10651 10656 10660 10664 10671 10680 10687 10693 10697 10701 10706 10712
10562 10560 10559 10559 10558 10558 10558 10559 10560 10562 10564 10566 10569 10571 10573 10576 10578 10580 10582 10584 10586 10589 10591 10593 10594 10594 10595 10596 10597 10598 10599 10599 10598 10599 10598 10598 10598 10597 10597 10597 10596 10596 10596 10595 10594 10594 10593 10593 10593 10593 10593 10593 10594 10595 10595 10596 10597 10597 10599 10602 10604 10607 10609 10612 10613 10613 10616 10619 10621 10622 10621 10620 10623 10628 10632 10635 10641 10646 10650 10654 10660 10667 10675 10682 10687 10691 10695 10701
10563 10561 10560 10559 10559 10558 10559 10559 10560 10562 10563 10565 10567 10569 10571 10573 10574 10576 10578 10580 10582 10585 10587 10588 10589 10589 10590 10591 10592 10593 10593 10593 10594 10594 10593 10593 10592 10592 10591 10590 10589 10588 10588 10586 10585 10584 10583 10583 10583 10584 10584 10584 10585 10585 10585 10586 10587 10587 10589 10590 10592 10594 10596 10599 10600 10602 10605 10608 10611 10611 10612 10611 10612 10617 10621 10624 10629 10635 10640 10644 10650 10655 10662 10670 10676 10681 10685 10690
10564 10563 10562 10561 10560 10560 10560 10560 10561 10562 10564 10565 10567 10569 10570 10571 10573 10574 10576 10577 10579 10581 10583 10584 10585 10585 10586 10587 10587 10587 10587 10588 10588 10588 10588 10587 10586 10585 10584 10582 10581 10580 10579 10578 10576 10575 10574 10574 10574 10575 10575 10575 10575 10574 10574 10575 10575 10576 10577 10578 10580 10581 10583 10585 10587 10589 10593 10597 10599 10600 10601 10601 10602 10605 10610 10614 10619 10624 10629 10635 10640 10645 10651 10658 10664 10670 10675 10680
10567 10565 10564 10563 10562 10562 10562 10562 10563 10563 10564 10565 10567 10568 10569 10570 10571 10572 10574 10575 10576 10578 10579 10580 10581 10581 10582 10582 10582 10582 10582 10582 10582 10582 10581 10580 10580 10578 10577 10575 10574 10573 10572 10570 10568 10567 10566 10567 10567 10568 10567 10566 10565 10564 10564 10565 10564 10564 10565 10565 10567 10568 10569 10571 10573 10575 10579 10584 10586 10587 10590 10591 10592 10593 10598 10605 10609 10614 10619 10625 10630 10635 10640 10646 10652 10658 10664 10670
10570 10568 10567 10566 10566 10565 10565 10565 10565 10565 10566 10566 10567 10568 10569 10570 10571 10572 10573 10574 10575 10576 10577 10577 10578 10578 10579 10579 10579 10578 10578 10579 10578 10578 10577 10576 10575 10574 10572 10570 10569 10568 10566 10565 10562 10560 10560 10560 10561 10560 10558 10557 10556 10554 10554 10554 10554 10553 10553 10553 10554 10555 10557 10558 10559 10561 10565 10569 10572 10575 10579 10581 10581 10582 10586 10594 10600 10604 10608 10614 10620 10625 10630 10636 10641 10646 10652 10658
10573 10572 10571 10570 10569 10569 10568 10568 10568 10568 10568 10568 10569 10570 10570 10571 10572 10573 10573 10574 10575 10576 10576 10576 10577 10577 10577 10577 10577 10577 10576 10576 10575 10575 10574 10572 10571 10569 10567 10565 10564 10563 10561 10559 10557 10555 10554 10553 10553 10552 10550 10548 10546 10545 10544 10544 10544 10543 10542 10542 10542 10543 10545 10545 10547 10549 10551 10555 10558 10563 10566 10569 10570 10571 10574 10580 10587 10592 10596 10602 10608 10614 10619 10625 10630 10635 10640 10646
10577 10575 10574 10573 10572 10572 10572 10571 10571 10571 10571 10572 10572 10572 10573 10574 10574 10575 10575 10576 10576 10576 10576 10576 10576 10576 10576 10575 10575 10575 10574 10574 10573 10572 10570 10569 10567 10565 10563 10561 10560 10559 10557 10555 10552 10550 10548 10547 10546 10544 10543 10541 10538 10536 10535 10534 10534 10534 10533 10532 10531 10533 10533 10534 10536 10537 10539 10541 10546 10550 10553 10557 10559 10561 10563 10567 10574 10580 10585 10590 10596 10602 10608 10614 10620 10625 10630 10634
10581 10579 10578 10577 10576 10575 10575 10575 10575 10575 10575 10575 10575 10576 10576 10576 10577 10577 10577 10577 10577 10577 10576 10576 10575 10575 10575 10575 10574 10574 10573 10572 10571 10570 10568 10566 10564 10562 10560 10558 10557 10555 10553 10551 10549 10546 10544 10541 10539 10537 10536 10534 10531 10529 10527 10526 10525 10525 10524 10524 10523 10524 10524 10525 10525 10526 10527 10528 10532 10536 10540 10544 10547 10549 10553 10556 10561 10567 10573 10578 10584 10591 10597 10603 10609 10615 10620 10624
10586 10584 10582 10581 10580 10580 10579 10579 10579 10579 10579 10579 10579 10579 10579 10580 10580 10579 10579 10579 10578 10577 10577 10576 10576 10575 10575 10575 10574 10573 10572 10571 10570 10568 10567 10565 10563 10561 10558 10556 10553 10552 10550 10548 10545 10542 10540 10537 10534 10532 10530 10527 10524 10522 10520 10519 10518 10517 10517 10516 10516 10515 10515 10514 10514 10515 10516 10517 10518 10522 10527 10531 10534 10538 10542 10545 10549 10555 10561 10567 10573 10579 10586 10593 10599 10605 10610 10614
10592 10590 10588 10587 10585 10585 10584 10584 10583 10583 10583 10583 10583 10583 10583 10583 10582 10582 10582 10581 10580 10579 10578 10578 10577 10575 10576 10576 10575 10574 10573 10571 10570 10568 10566 10564 10562 10560 10557 10554 10551 10549 10546 10544 10541 10539 10536 10533 10531 10528 10525 10522 10519 10517 10514 10513 10511 10510 10509 10508 10508 10507 10506 10504 10504 10504 10505 10506 10506 10509 10514 10518 10523 10526 10530 10534 10537 10542 10548 10556 10562 10568 10574 10581 10588 10595 10600 10604
10599 10597 10595 10593 10591 10590 10589 10589 10588 10588 10588 10588 10587 10586 10586 10586 10586 10585 10584 10583 10582 10581 10580 10580 10578 10577 10578 10578 10576 10575 10573 10572 10570 10568 10566 10564 10562 10560 10557 10554 10551 10548 10545 10542 10539 10536 10533 10530 10527 10524 10521 10518 10515 10512 10510 10507 10505 10504 10502 10501 10500 10499 10498 10496 10495 10495 10495 10496 10496 10498 10501 10506 10510 10515 10519 10523 10527 10531 10536 10543 10550 10556 10563 10569 10576 10584 10589 10594
10606 10604 10602 10600 10598 10597 10595 10594 10594 10593 10593 10592 10591 10591 10589 10589 10589 10588 10587 10586 10584 10583 10582 10581 10579 10579 10579 10578 10576 10575 10574 10572 10571 10568 10566 10564 10561 10559 10556 10553 10550 10547 10544 10541 10537 10534 10531 10527 10524 10520 10517 10514 10511 10507 10505 10502 10500 10498 10496 10495 10493 10492 10490 10489 10488 10487 10486 10487 10487 10489 10491 10495 10499 10504 10509 10513 10517 10521 10525 10530 10538 10545 10551 10558 10564 10572 10578 10583
10614 10612 10610 10607 10605 10603 10602 10601 10600 10599 10598 10596 10595 10594 10592 10592 10592 10591 10590 10587 10585 10584 10583 10582 10581 10581 10580 10578 10577 10576 10574 10573 10571 10569 10566 10564 10561 10558 10556 10553 10549 10545 10542 10539 10536 10532 10528 10525 10522 10519 10515 10511 10508 10504 10501 10498 10495 10494 10492 10489 10487 10485 10483 10482 10481 10480 10479 10479 10479 10481 10483 10486 10490 10495 10499 10504 10508 10512 10516 10520 10526 10533 10540 10547 10553 10560 10566 10572
10621 10619 10617 10615 10613 10610 10608 10606 10604 10603 10601 10598 10597 10596 10595 10595 10594 10593 10591 10588 10587 10586 10585 10584 10583 10582 10580 10579 10577 10576 10574 10573 10571 10569 10566 10564 10561 10558 10555 10552 10547 10544 10542 10539 10535 10530 10527 10525 10522 10518 10514 10510 10506 10502 10498 10495 10492 10490 10488 10485 10482 10479 10477 10475 10474 10473 10472 10472 10472 10474 10475 10478 10482 10486 10491 10496 10500 10504 10507 10511 10516 10522 10528 10535 10542 10548 10554 10561
10626 10625 10623 10621 10619 10616 10613 10611 10609 10606 10603 10601 10600 10599 10599 10598 10597 10595 10592 10590 10589 10588 10587 10586 10585 10583 10582 10580 10578 10576 10574 10573 10570 10568 10566 10563 10561 10558 10555 10551 10548 10545 10541 10538 10534 10530 10528 10527 10523 10517 10513 10509 10505 10501 10497 10493 10489 10486 10484 10482 10479 10475 10472 10470 10468 10468 10467 10466 10466 10468 10469 10471 10475 10478 10483 10488 10492 10495 10498 10502 10507 10511 10517 10524 10531 10537 10543 10549
10631 10629 10627 10625 10623 10621 10618 10616 10614 10612 10609 10607 10605 10604 10603 10601 10599 10597 10595 10593 10592 10591 10589 10588 10586 10584 10583 10580 10579 10577 10574 10572 10570 10567 10565 10563 10560 10557 10554 10551 10548 10544 10540 10537 10534 10531 10529 10526 10521 10517 10514 10509 10504 10500 10495 10491 10487 10484 10481 10478 10476 10472 10469 10466 10464 10463 10462 10461 10461 10462 10463 10465 10468 10471 10474 10479 10484 10486 10490 10495 10499 10502 10507 10512 10519 10526 10532 10538
10636 10633 10631 10629 10627 10624 10622 10620 10619 10616 10614 10612 10610 10608 10607 10605 10603 10601 10600 10598 10595 10594 10592 10590 10588 10586 10584 10581 10579 10577 10574 10572 10570 10567 10564 10562 10559 10557 10554 10551 10548 10544 10540 10538 10534 10531 10528 10524 10520 10517 10512 10507 10502 10498 10493 10490 10487 10483 10479 10476 10473 10469 10466 10463 10461 10459 10457 10457 10456 10457 10457 10459 10461 10464 10467 10471 10475 10478 10483 10488 10491 10494 10497 10501 10507 10515 10522 10528
10640 10637 10635 10633 10631 10629 10626 10624 10622 10620 10617 10615 10614 10612 10610 10609 10607 10606 10605 10601 10598 10597 10596 10593 10590 10588 10586 10583 10580 10578 10575 10573 10570 10567 10565 10562 10559 10556 10553 10550 10547 10543 10540 10537 10534 10530 10527 10523 10519 10514 10509 10505 10500 10496 10493 10491 10487 10484 10480 10476 10472 10468 10464 10461 10458 10456 10454 10453 10453 10453 10453 10454 10456 10459 10462 10465 10468 10472 10476 10480 10482 10485 10488 10492 10498 10504 10511 10517
10644 10642 10639 10637 10635 10633 10630 10629 10627 10623 10620 10619 10617 10615 10613 10612 10610 10609 10607 10603 10601 10601 10599 10596 10593 10591 10588 10585 10582 10579 10576 10574 10572 10569 10566 10563 10559 10556 10553 10550 10547 10543 10539 10536 10533 10529 10526 10521 10517 10513 10508 10503 10498 10495 10493 10491 10488 10484 10480 10477 10473 10468 10464 10460 10457 10455 10452 10451 10450 10450 10450 10451 10452 10454 10457 10460 10463 10466 10470 10472 10476 10480 10482 10486 10491 10494 10500 10507
10649 10647 10644 10641 10639 10636 10634 10633 10631 10628 10625 10623 10621 10618 10616 10615 10612 10611 10609 10605 10605 10605 10601 10598 10597 10594 10590 10587 10584 10581 10579 10578 10575 10571 10568 10564 10561 10557 10554 10550 10546 10542 10539 10535 10532 10529 10525 10520 10516 10511 10507 10502 10499 10497 10494 10491 10488 10485 10482 10478 10474 10470 10466 10462 10458 10455 10452 10450 10448 10448 10448 10448 10449 10451 10453 10456 10458 10461 10464 10467 10471 10476 10479 10482 10485 10487 10492 10497
10654 10652 10649 10646 10643 10641 10639 10637 10634 10632 10631 10628 10625 10622 10620 10618 10615 10614 10610 10608 10609 10607 10603 10601 10599 10595 10592 10590 10587 10585 10583 10580 10576 10573 10570 10566 10563 10559 10555 10551 10547 10542 10539 10535 10532 10528 10524 10520 10516 10512 10508 10504 10502 10499 10495 10492 10488 10485 10482 10479 10476 10473 10469 10465 10461 10457 10453 10450 10448 10447 10447 10447 10448 10449 10451 10453 10455 10457 10460 10463 10466 10471 10474 10476 10479 10483 10486 10491
10660 10656 10654 10651 10648 10646 10643 10640 10638 10637 10635 10632 10630 10628 10625 10622 10619 10617 10613 10613 10612 10608 10604 10602 10599 10595 10593 10590 10588 10586 10584 10580 10577 10574 10571 10568 10565 10560 10557 10553 10548 10543 10540 10536 10533 10529 10524 10521 10517 10513 10510 10507 10504 10500 10496 10492 10489 10485 10482 10479 10477 10474 10470 10467 10463 10458 10455 10452 10449 10448 10447 10446 10447 10448 10449 10450 10452 10454 10456 10459 10461 10465 10468 10471 10474 10478 10481 10485
10665 10661 10658 10655 10652 10650 10647 10644 10643 10641 10638 10636 10634 10632 10629 10626 10623 10620 10618 10618 10615 10610 10608 10605 10601 10598 10596 10593 10591 10589 10585 10582 10579 10576 10573 10570 10566 10562 10559 10554 10550 10546 10542 10539 10535 10530 10526 10522 10518 10515 10512 10509 10504 10500 10496 10492 10489 10486 10482 10479 10476 10472 10468 10465 10462 10460 10457 10454 10451 10450 10448 10447 10447 10447 10448 10449 10450 10452 10453 10455 10457 10460 10463 10467 10469 10473 10476 10478
10669 10666 10663 10660 10657 10654 10651 10648 10646 10644 10642 10640 10637 10635 10632 10630 10627 10624 10623 10621 10617 10614 10612 10608 10605 10603 10600 10598 10596 10593 10589 10587 10584 10580 10577 10574 10569 10564 10560 10556 10552 10548 10545 10541 10537 10533 10528 10524 10521 10517 10513 10509 10506 10502 10498 10493 10490 10486 10482 10479 10475 10471 10467 10465 10463 10461 10459 10457 10455 10452 10450 10449 10448 10448 10448 10448 10449 10450 10451 10452 10454 10456 10459 10462 10465 10468 10471 10473
10673 10671 10667 10664 10661 10658 10655 10652 10650 10647 10645 10643 10640 10638 10635 10632 10630 10628 10626 10622 10619 10617 10614 10611 10609 10606 10604 10601 10598 10595 10592 10588 10585 10581 10577 10573 10568 10564 10560 10557 10553 10550 10546 10542 10538 10534 10530 10526 10522 10519 10514 10510 10506 10503 10500 10496 10492 10488 10484 10480 10476 10473 10469 10466 10464 10462 10460 10459 10458 10456 10454 10452 10450 10449 10449 10449 10449 10449 10449 10450 10451 10453 10456 10458 10461 10464 10467 10469
10677 10674 10671 10668 10665 10662 10659 10656 10653 10651 10649 10646 10644 10641 10638 10636 10633 10631 10628 10624 10622 10620 10616 10614 10611 10608 10606 10603 10600 10597 10594 10590 10586 10582 10578 10573 10569 10566 10563 10559 10555 10551 10547 10543 10538 10533 10529 10526 10522 10519 10514 10510 10505 10501 10498 10496 10493 10489 10486 10482 10479 10475 10472 10469 10466 10463 10462 10460 10459 10458 10457 10455 10453 10451 10450 10449 10449 10449 10449 10449 10450 10451 10453 10455 10457 10460 10462 10465
10680 10677 10674 10672 10669 10666 10662 10659 10656 10654 10651 10649 10647 10644 10641 10639 10636 10633 10630 10627 10624 10621 10618 10616 10613 10610 10607 10604 10601 10598 10595 10592 10589 10585 10581 10577 10574 10571 10567 10563 10559 10554 10550 10545 10541 10536 10531 10527 10523 10519 10515 10512 10508 10504 10499 10496 10493 10490 10488 10485 10481 10477 10474 10471 10469 10466 10464 10462 10460 10459 10458 10457 10456 10454 10452 10451 10450 10449 10449 10449 10449 10450 10451 10452 10454 10456 10458 10460
10682 10680 10677 10675 10672 10669 10666 10663 10660 10657 10654 10652 10649 10646 10644 10642 10639 10636 10633 10630 10627 10624 10621 10619 10616 10613 10610 10606 10603 10600 10597 10594 10591 10587 10584 10581 10578 10574 10570 10567 10562 10558 10554 10549 10546 10541 10536 10532 10527 10522 10518 10515 10511 10508 10504 10499 10495 10492 10490 10487 10484 10480 10477 10474 10471 10469 10467 10464 10462 10460 10459 10457 10457 10456 10455 10453 10451 10450 10450 10449 10449 10449 10450 10451 10451 10453 10454 10456
10685 10683 10680 10678 10675 10673 10670 10666 10663 10660 10657 10655 10652 10649 10646 10644 10641 10639 10636 10633 10630 10628 10625 10621 10618 10615 10612 10609 10606 10602 10599 10596 10592 10589 10586 10583 10580 10576 10572 10569 10565 10561 10557 10554 10550 10546 10542 10537 10533 10528 10523 10519 10515 10512 10508 10504 10500 10496 10492 10488 10486 10484 10481 10478 10475 10472 10470 10467 10465 10462 10460 10458 10457 10456 10455 10455 10453 10452 10451 10449 10449 10449 10449 10449 10450 10450 10451 10452
10688 10685 10683 10680 10678 10675 10673 10670 10666 10663 10661 10658 10655 10652 10649 10646 10644 10641 10639 10636 10633 10631 10627 10624 10621 10618 10614 10611 10608 10604 10601 10597 10594 10591 10588 10585 10582 10578 10575 10571 10567 10564 10560 10557 10553 10549 10546 10542 10539 10534 10529 10525 10521 10516 10512 10508 10504 10500 10496 10492 10489 10486 10484 10482 10479 10475 10472 10470 10467 10465 10463 10460 10458 10457 10455 10455 10454 10453 10452 10450 10449 10448 10448 10448 10448 10448 10448 10449
10690 10687 10685 10683 10680 10678 10675 10672 10669 10666 10664 10661 10658 10655 10652 10649 10647 10644 10641 10639 10636 10633 10630 10626 10623 10620 10617 10614 10610 10607 10603 10600 10596 10593 10589 10586 10583 10580 10577 10573 10569 10566 10562 10559 10556 10553 10550 10545 10542 10539 10535 10531 10526 10521 10517 10512 10508 10504 10500 10496 10493 10489 10486 10484 10481 10478 10474 10471 10469 10466 10465 10463 10460 10458 10456 10455 10454 10453 10452 10451 10449 10448 10447 10446 10446 10446 10446 10446
10691 10689 10687 10685 10682 10680 10678 10675 10672 10669 10667 10664 10661 10658 10656 10653 10650 10647 10644 10641 10638 10635 10632 10629 10626 10622 10619 10616 10613 10610 10606 10603 10599 10595 10592 10588 10585 10582 10578 10575 10572 10568 10565 10561 10557 10555 10553 10549 10545 10541 10538 10535 10531 10526 10521 10517 10512 10507 10503 10499 10495 10492 10488 10485 10482 10479 10476 10472 10470 10467 10464 10463 10462 10459 10457 10455 10453 10452 10451 10450 10449 10448 10447 10446 10444 10444 10444 10444
10693 10690 10688 10686 10684 10682 10679 10677 10675 10672 10670 10667 10664 10661 10659 10656 10653 10650 10647 10644 10641 10638 10634 10631 10628 10625 10622 10618 10615 10612 10608 10605 10602 10598 10595 10591 10588 10584 10581 10578 10574 10570 10567 10563 10559 10556 10553 10550 10547 10543 10539 10537 10533 10529 10524 10519 10514 10510 10505 10501 10497 10493 10489 10485 10482 10480 10477 10474 10472 10470 10465 10462 10461 10460 10458 10456 10454 10452 10450 10449 10449 10448 10447 10445 10444 10443 10442 10442
10694 10692 10690 10687 10685 10683 10680 10678 10676 10674 10672 10669 10667 10664 10661 10658 10655 10652 10649 10647 10644 10640 10637 10634 10630 10627 10624 10620 10617 10614 10610 10607 10604 10600 10597 10594 10590 10587 10583 10580 10576 10573 10569 10566 10562 10559 10555 10551 10548 10544 10539 10536 10533 10531 10527 10521 10516 10512 10507 10503 10499 10494 10491 10487 10483 10480 10479 10475 10472 10471 10468 10462 10458 10458 10458 10456 10454 10452 10450 10449 10447 10446 10446 10445 10444 10442 10441 10440
10696 10694 10691 10689 10686 10683 10681 10679 10677 10675 10673 10671 10668 10666 10663 10660 10657 10654 10652 10649 10646 10642 10639 10636 10633 10629 10626 10622 10619 10615 10612 10609 10606 10602 10599 10595 10592 10589 10585 10582 10578 10575 10572 10568 10565 10561 10557 10553 10550 10546 10541 10537 10534 10532 10529 10525 10519 10514 10510 10505 10501 10497 10493 10489 10485 10481 10479 10476 10472 10470 10470 10466 10459 10455 10455 10455 10454 10452 10450 10449 10447 10444 10443 10443 10442 10441 10439 10438
10697 10695 10693 10690 10688 10685 10682 10680 10677 10675 10673 10671 10669 10666 10664 10661 10659 10656 10653 10650 10647 10644 10641 10638 10634 10631 10627 10624 10620 10617 10614 10610 10607 10604 10600 10597 10593 10590 10587 10583 10580 10577 10573 10570 10566 10563 10560 10556 10552 10547 10542 10537 10533 10530 10529 10527 10522 10517 10512 10507 10503 10499 10495 10491 10487 10482 10478 10476 10473 10469 10469 10469 10464 10456 10452 10452 10451 10450 10448 10447 10446 10444 10442 10440 10439 10438 10438 10436
10698 10695 10693 10691 10689 10686 10683 10681 10678 10676 10674 10672 10669 10667 10664 10662 10659 10657 10654 10651 10648 10645 10641 10639 10635 10632 10628 10625 10622 10618 10615 10612 10608 10605 10602 10598 10594 10591 10588 10585 10581 10578 10574 10571 10567 10564 10561 10558 10556 10552 10547 10541 10535 10530 10528 10526 10524 10519 10515 10510 10505 10501 10498 10493 10489 10484 10478 10474 10473 10470 10467 10468 10467 10461 10454 10449 10447 10446 10445 10444 10443 10443 10441 10439 10436 10435 10434 10433
10698 10695 10693 10691 10689 10687 10684 10682 10679 10676 10674 10672 10670 10667 10665 10662 10659 10657 10655 10652 10648 10645 10642 10639 10636 10633 10629 10626 10623 10620 10617 10614 10610 10607 10603 10600 10596 10592 10589 10585 10582 10579 10576 10572 10568 10564 10561 10557 10554 10553 10550 10545 10540 10535 10531 10529 10527 10523 10518 10514 10509 10503 10500 10496 10491 10487 10482 10476 10472 10469 10466 10464 10463 10462 10458 10452 10446 10442 10441 10440 10439 10438 10438 10437 10435 10432 10431 10429
10697 10695 10693 10690 10688 10686 10684 10682 10679 10677 10674 10672 10670 10668 10665 10662 10659 10657 10655 10652 10649 10646 10643 10639 10636 10633 10630 10626 10623 10620 10617 10614 10612 10608 10605 10601 10597 10594 10590 10586 10583 10580 10577 10573 10569 10565 10561 10556 10552 10549 10548 10544 10538 10533 10531 10529 10528 10525 10520 10515 10511 10506 10501 10498 10494 10488 10484 10479 10472 10468 10465 10462 10458 10456 10455 10453 10449 10443 10439 10436 10434 10433 10432 10432 10431 10430 10427 10426
10696 10694 10692 10690 10687 10685 10683 10681 10679 10677 10674 10672 10670 10668 10665 10663 10660 10657 10654 10652 10649 10646 10643 10640 10637 10634 10631 10627 10623 10620 10617 10614 10611 10609 10606 10602 10599 10595 10591 10587 10584 10580 10577 10574 10570 10566 10561 10556 10550 10546 10545 10543 10538 10531 10528 10526 10526 10525 10521 10515 10511 10507 10502 10499 10495 10489 10484 10480 10475 10469 10464 10460 10457 10453 10450 10448 10447 10443 10439 10435 10431 10428 10426 10425 10425 10424 10423 10421
10695 10693 10691 10689 10686 10684 10682 10680 10678 10676 10673 10671 10670 10667 10665 10662 10660 10657 10654 10651 10649 10646 10643 10640 10637 10634 10631 10628 10624 10620 10617 10613 10610 10607 10605 10602 10599 10595 10591 10587 10584 10580 10577 10573 10570 10566 10562 10557 10551 10545 10541 10541 10537 10530 10525 10523 10523 10523 10521 10516 10511 10507 10502 10499 10496 10491 10484 10479 10475 10470 10464 10459 10456 10452 10448 10445 10443 10439 10436 10433 10429 10426 10423 10421 10419 10417 10416 10414
10693 10691 10689 10687 10685 10683 10680 10678 10677 10675 10672 10670 10668 10666 10664 10661 10659 10656 10654 10651 10648 10645 10643 10640 10637 10634 10631 10627 10624 10620 10617 10613 10609 10606 10603 10600 10598 10594 10591 10587 10583 10580 10577 10573 10570 10566 10563 10559 10554 10547 10540 10537 10536 10530 10523 10521 10520 10519 10517 10514 10510 10506 10502 10497 10496 10493 10486 10479 10473 10469 10463 10458 10454 10450 10446 10443 10440 10436 10432 10429 10426 10423 10420 10418 10416 10413 10410 10408
10692 10689 10688 10686 10683 10681 10679 10676 10675 10673 10670 10668 10666 10665 10662 10660 10658 10656 10653 10651 10648 10644 10642 10639 10636 10634 10630 10627 10623 10620 10616 10612 10609 10605 10602 10599 10596 10593 10589 10586 10582 10579 10576 10573 10569 10566 10562 10559 10557 10551 10542 10537 10534 10529 10521 10517 10518 10518 10514 10510 10507 10503 10499 10494 10492 10491 10486 10479 10473 10468 10462 10456 10451 10447 10442 10438 10436 10433 10429 10425 10422 10419 10416 10414 10412 10409 10406 10403
10691 10688 10686 10684 10682 10680 10677 10675 10673 10671 10668 10666 10664 10663 10661 10658 10656 10654 10652 10650 10647 10644 10641 10638 10635 10633 10629 10625 10622 10618 10614 10611 10607 10603 10600 10597 10594 10590 10587 10584 10581 10577 10574 10572 10568 10565 10562 10558 10556 10553 10547 10539 10535 10530 10521 10514 10514 10516 10514 10509 10505 10501 10496 10491 10487 10487 10484 10478 10472 10466 10461 10456 10450 10445 10440 10434 10430 10427 10424 10421 10417 10414 10412 10411 10408 10405 10402 10399
10690 10687 10684 10682 10680 10678 10675 10673 10671 10668 10666 10664 10662 10660 10658 10656 10654 10652 10650 10648 10645 10643 10640 10637 10634 10631 10628 10624 10620 10616 10612 10609 10605 10601 10597 10594 10591 10587 10584 10581 10577 10574 10571 10569 10566 10563 10560 10557 10554 10552 10548 10542 10536 10532 10524 10513 10511 10513 10511 10507 10502 10498 10494 10489 10484 10482 10481 10476 10471 10465 10459 10454 10449 10444 10439 10433 10427 10422 10418 10414 10410 10408 10406 10405 10402 10399 10396 10394